Regional Weather Roundup
Issued by NWS Sterling, VA

Home | Current Version | Previous Version | Graphics & Text | Print | Product List | Glossary On
Versions: 1 2 3 4 5 6 7 8 9 10 11 12 13 14 15 16 17 18 19 20 21 22 23 24 25 26 27 28 29 30 31 32 33 34 35 36 37 38 39 40 41 42 43 44 45 46 47 48 49
000
ASUS41 KLWX 191210
RWRLWX

REGIONAL WEATHER ROUNDUP
NATIONAL WEATHER SERVICE BALTIMORE MD/WASHINGTON DC
700 AM EST FRI DEC 19 2014

Note: "FAIR" indicates few or no clouds below 12,000 feet
with no significant weather and/or obstructions to visibility.
 TC=TEMPERATURE CELSIUS

 * =Non NWS site. Station does not report precipitation (e.g. rain,
    snow, etc.), thunder, or fog.

DCZ001-MDZ009-015-VAZ040>042-051-053>054-191300-
WASHINGTON METRO

CITY           SKY/WX    TMP DP  RH WIND       PRES   REMARKS
WASHINGTON NAT CLOUDY    38  21  50 NW7       30.15R
DULLES         MOCLDY    33  22  63 NW13      30.14R WCI  24
ANDREWS AFB    CLOUDY    34  21  60 NW12      30.13R WCI  25
FT BELVOIR     CLOUDY    35  22  58 NW7       30.16R
QUANTICO       CLOUDY    36  21  54 N12G24    30.17R WCI  28
COLLEGE PARK*  CLOUDY    36  25  64 NW5       30.13R
LEESBURG*      CLOUDY    34  27  75 NW10      30.15R WCI  26
MANASSAS*      CLOUDY    34  25  69 NW10G16   30.15R WCI  26
GAITHERSBURG*  CLOUDY    32  21  64 W10       30.15R WCI  24

$$

MDZ006>007-011-014-191300-
BALTIMORE METRO

CITY           SKY/WX    TMP DP  RH WIND       PRES   REMARKS
BWI AIRPORT    CLOUDY    34  23  64 W6        30.11R
MD SCIENCE CTR   N/A     36  23  59 MISG      30.12R
MARTIN STATE   CLOUDY    36  27  69 W9        30.13R WCI  29
ANNAPOLIS      CLOUDY    36  24  62 W5        30.13R
FORT MEADE*    CLOUDY    34  25  69 W5        30.14R

$$

MDZ012-015-019>023-191300-
MARYLAND EASTERN SHORE

CITY           SKY/WX    TMP DP  RH WIND       PRES   REMARKS
OCEAN CITY     MOCLDY    33  25  72 NW5       30.10R
SALISBURY      CLOUDY    36  25  64 NW8       30.11R
BAY BRIDGE AP*   N/A     36  25  64 NW10      30.13R WCI  28
CAMBRIDGE*     CLOUDY    36  27  69 NW9G16    30.11R WCI  29
EASTON*        CLOUDY    37  27  65 NW8       30.15R

$$

MDZ017>025-191300-
SOUTHERN MARYLAND

CITY           SKY/WX    TMP DP  RH WIND       PRES   REMARKS
PATUXENT RIVER MOCLDY    35  23  61 NW15      30.13R WCI  25
ST INIGOES     MOCLDY    35  21  56 NW8       30.13R WCI  29
LEONARDTOWN*   CLOUDY    34  23  64 NW6       30.15R

$$

MDZ003>005-191300-
NORTH CENTRAL MARYLAND

CITY           SKY/WX    TMP DP  RH WIND       PRES   REMARKS
FREDERICK*     CLOUDY    36  21  55 NW12G17   30.15R WCI  27
HAGERSTOWN APT CLOUDY    33  22  63 NW10      30.11R WCI  25
WESTMINSTER*   CLOUDY    32  25  74 W8        30.08R WCI  25

$$

MDZ501>502-191300-
WESTERN MARYLAND

CITY           SKY/WX    TMP DP  RH WIND       PRES   REMARKS
OAKLAND*       FOG       21 N/A N/A W8        30.04R VSB 3/4 WCI  12
CUMBERLAND*    NOT AVBL

$$

VAZ025>031-191300-
SHENANDOAH VALLEY

CITY           SKY/WX    TMP DP  RH WIND       PRES   REMARKS
WINCHESTER*    CLOUDY    34  19  55 NW12      30.14R WCI  25
FRONT ROYAL*   CLOUDY    32  23  69 NW3       30.13R
LURAY*         FAIR      27  25  93 CALM      30.13R
NEW MARKET*    FAIR      22  20  91 CALM      30.13R
STAUNTON*      CLEAR     22  19  89 CALM      30.13S
WAYNESBORO*    FAIR      28  22  77 W6        30.10S

$$

WVZ021-048>050-054>055-191300-
EASTERN WEST VIRGINIA PANHANDLE

CITY           SKY/WX    TMP DP  RH WIND       PRES   REMARKS
MARTINSBURG    CLOUDY    34  19  54 NW9       30.14R WCI  27
PETERSBURG*    PTCLDY    28  22  78 S3        30.16R

$$

VAZ036>039-050-191300-
CENTRAL FOOTHILLS

CITY           SKY/WX    TMP DP  RH WIND       PRES   REMARKS
CHARLOTTESVILL CLEAR     29  23  78 CALM      30.13R
CULPEPER*      CLOUDY    28  27  93 CALM      30.15R
ORANGE*        CLEAR     27  25  93 CALM      30.15R
GORDONSVILLE*  FAIR      26  22  87 CALM      30.13R
WARRENTON*     CLOUDY    31  29  95 N5        30.13S

$$

VAZ055>057-191300-
NORTH AND CENTRAL PIEDMONT

CITY           SKY/WX    TMP DP  RH WIND       PRES   REMARKS
FREDERICKSBRG* CLEAR     31  25  77 NW3       30.15R
STAFFORD*      CLOUDY    28  23  81 CALM      30.19R

$$

NCZ024-NYZ072-PAZ021-071-VAZ022-071-191300-
OTHER REGIONAL OBSERVATIONS

CITY           SKY/WX    TMP DP  RH WIND       PRES   REMARKS
NEW YORK CITY  CLOUDY    37  22  54 NW10G18   30.01R
PHILADELPHIA   CLOUDY    37  25  61 W10       30.07R
PITTSBURGH     FRZ DRZL  28  25  88 W7        30.16R FOG
ROANOKE        CLEAR     33  19  56 NW12      30.16R WCI  24
RICHMOND       PTCLDY    33  22  63 NW3       30.15R
RALEIGH        MOCLDY    41  25  53 CALM      30.14R

$$

ANZ530>537-191300-
MARINE OBSERVATIONS

STATION/POSITION TIME  TEMP    WIND        PRES
                       AIR SEA DIR/SP/G
                 (UTC) (F)     (DEG/KT/KT) (MB)
THOMAS PT LIGHT  1200   35 41  310/ 11/ 13 1021.5R
BALT KEY BRIDGE  1200   36     290/  9/ 12 1019.7R
COVE POINT       1200   34     330/  9/ 12 1020.0R
LEWISETTA        1200   36 43  340/  9/ 13 1020.4R
SOLOMONS ISLAND  1200      43                N/A
PINEY POINT      1200          350/ 13/ 16   N/A

$$




USA.gov is the U.S. government's official web portal to all federal, state and local government web resources and services.